Location: Centerville
(32.8776°N, 96.6203°W)
Time: 11:15:53
(UTC+00:00)

Cosmos 2237 - Pass Details

Date: 24 October 2021
Orbit: 845 x 856 km, 70.8° (Epoch: 08 December)

Event Time Altitude Azimuth Distance (km) Brightness Sun altitude
Exits shadow 11:04:48 - 337° (NNW) 2,866 6.7 -20.2°
Reaches altitude 10° 11:05:47 10° 337° (NNW) 2,490 6.4 -20.0°
Maximum altitude 11:11:31 79° 251° (WSW) 873 4.1 -18.8°
Drops below altitude 10° 11:17:11 10° 166° (SSE) 2,471 6.8 -17.6°
Sets 11:19:37 0° 165° (SSE) 3,402 7.6 -17.1°
